Terminal Aerodrome Forecast
Issued by NWS Cleveland, OH

Home | Current Version | Previous Version | Graphics & Text | Print | Product List | Glossary On
Versions: 1 2 3 4 5 6 7 8 9 10 11 12 13 14 15 16
000
FTUS41 KCLE 240500
TAFTOL
TAF
KTOL 240536Z 2406/2506 VRB03KT 3/4SM -DZ BR OVC003
     FM241800 13010KT 3SM BR OVC005
     FM242000 18015G25KT P6SM -SHRA OVC008
     FM242200 24022G35KT P6SM OVC012=

USA.gov is the U.S. government's official web portal to all federal, state and local government web resources and services.